Flag for Germany Weather past 2 weeks in Lüneburg, Lower Saxony, Germany

Now
59 °F

Passing clouds.


Feels Like: 58 °F
Forecast: 55 / 71 °F
Wind: 7 mph from East

Location: Fassberg

Current Time: Sep 17, 2014 at 2:35:19 AM

Latest Report: Sep 17, 2014 at 1:20 AM


Visibility: N/A

Pressure: 30.07 "Hg

Humidity: 88%

Dew point: 55 °F

Location of LüneburgLocation

Historic Weather in Lüneburg — Graph

°F

Lüneburg temperature yesterday

Maximum temperature yesterday: 73 °F (at 3:20 PM)
Minimum temperature yesterday: 54 °F (at 3:20 AM)
Average temperature yesterday: 62 °F

Past Weeks' High & Low Weather Summary

 TemperatureHumidityPressure
High79 °F (Sep 6, 2:20 PM)100% (Sep 2, 5:20 AM)30.33 "Hg (Sep 2, 5:20 AM)
Low46 °F (Sep 3, 3:20 AM)49% (Sep 8, 5:00 PM)29.86 "Hg (Sep 6, 3:20 PM)
Average60 °F84%30.09 "Hg
* Reported Sep 2 1:20 AM — Sep 17 1:20 AM, Lüneburg, Weather by CustomWeather, © 2014

Note: Actual official high and low records may vary slightly from our data, if they occured in-between our weather recording intervals... More about our weather records

Advertising

Lüneburg weather history for previous 24 hours

 ConditionsComfort  
Time TempWeatherWind HumidityBarometerVisibility
1:20 AM
Sep 17
59 °FPassing clouds.7 mph88%30.07 "HgN/A
12:20 AM59 °FPassing clouds.8 mph88%30.07 "HgN/A
11:20 PM
Sep 16
59 °FPassing clouds.7 mph88%30.07 "HgN/A
10:50 PM61 °FPassing clouds.7 mph88%30.07 "HgN/A
10:20 PM63 °FPassing clouds.7 mph83%30.07 "HgN/A
9:20 PM61 °FPassing clouds.6 mph88%30.07 "HgN/A
8:20 PM63 °FScattered clouds.7 mph88%30.04 "HgN/A
7:20 PM66 °FScattered clouds.7 mph83%30.04 "HgN/A
6:20 PM72 °FScattered clouds.8 mph65%30.04 "HgN/A
5:20 PM73 °FPartly sunny.9 mph65%30.04 "HgN/A
4:20 PM73 °FScattered clouds.10 mph65%30.04 "HgN/A
3:20 PM73 °FPartly sunny.10 mph65%30.04 "HgN/A
2:20 PM72 °FPartly sunny.10 mph65%30.07 "HgN/A
1:20 PM72 °FScattered clouds.10 mph65%30.07 "HgN/A
12:20 PM68 °FScattered clouds.10 mph69%30.07 "HgN/A
11:20 AM66 °FPassing clouds.10 mph73%30.09 "HgN/A
10:20 AM64 °FPassing clouds.9 mph73%30.09 "HgN/A
9:20 AM61 °FPassing clouds.7 mph83%30.09 "HgN/A
8:20 AM57 °FPassing clouds.7 mph88%30.09 "Hg5 mi
7:20 AM54 °FPassing clouds.5 mph94%30.09 "Hg4 mi
6:20 AM54 °FPassing clouds.6 mph94%30.07 "Hg4 mi
5:20 AM54 °FFog.7 mph94%30.07 "Hg4 mi
4:20 AM54 °FFog.6 mph94%30.07 "Hg4 mi
3:20 AM54 °FFog.8 mph94%30.07 "Hg4 mi
2:20 AM55 °FPassing clouds.6 mph94%30.07 "HgN/A
Weather by CustomWeather, © 2014

See weather overviewHow to use our weather pages